STARLINK-1454, 45671

Orbit data source: Space-Track

STARLINK-1454, 45671 is a payload satellite owned by SpaceX/Seattle (US) in LEO that was launched on Thu, 04 Jun 2020 UTC via an FALCON 9 launch vehicle from the Air Force Eastern Test Range (AFETR). Payload-class satellites include a variety of spacecraft equipped with specific instruments for various scientific and technological missions. These include communications satellites like Starlink; space stations such as the ISS; scientific satellites like the Hubble; Earth observation satellites from companies like Planet Labs, Umbra, and HawkEye 360; GPS; miniature CubeSats for education and research; and military/defense satellites.

Loading next visibility...
Identifier
45671, 2020-035Q
Orbit
LEO
Country
Flag of USUS
Related business
Manufacturer
SpaceX/Seattle
Mission
Partially operational Commercial Communications
Bus & Motor
STARLINK, Unknown motor
Mass
260 kg wet, ~248 kg dry
Launch date (UTC)
2020-06-04 (6 years ago)
Launch vehicle
FALCON 9
Launch site
Air Force Eastern Test Range (AFETR)
Object type
Payload
Rocket body
Debris
Shape & HBR
Box + 1 Pan, 10.1 m
Radar Cross Section
13.562 m², Large (>1 m²)

Expand to show TLE details & history
Last TLE update: 1 day ago

TLE from 1 day ago
0 STARLINK-1454
1 45671U 20035Q   26168.60297579  .00049031  00000-0  44063-3 0  9998
2 45671  53.0428 285.8426 0002889  31.2933 328.8254 15.67776375334512
Epoch: 2026-06-17T14:28Z
TLE epoch observation values (Epoch: 2026-06-17T14:28:17.108Z)
Latitude
-0.00001°
Longitude
162.91302°
Altitude
364.501 km
Speed
7.693 km/s
True Right ascension
19h 03m 22s
True Declination
0° 00' 00"
Sunlit
Object was in full shadow at epoch
Visualization orbit readout
Latitude
Unknown
Longitude
Unknown
Altitude
Unknown
Speed
Unknown
Apparent Right ascension
Unknown
Apparent Declination
Unknown
Sunlit
N/A
Visualization observer readout
Local Sidereal Time
13:04:32
Azimuth
Unknown
Elevation
Unknown
Doppler factor
Unknown
Orbital elements
Apogee altitude
367.494 km
Perigee altitude
363.597 km
Semi-major axis
6,743.682 km
Eccentricity
0.00029
Inclination
53.0428°
RAAN
285.8426°
Arg. of periapsis
31.2933°
True anomaly
328.80826°
Mean anomaly
328.8254°
Eccentric anomaly
328.81683°
Mean motion
3.9192 °/min
Orbital period
91.86 mins
BSTAR
0.00044063
Loading maneuver chart data...
Computing Atmospheric mass density...

Documentation

Showing up to 5 results
|